Theta_e
316 317 317 319 321 323 324 326 325 326 326 326 325 322 321 324 319 320 330 330 334 336 337 337 336 324 312 328 327 330 327 323 323 319 317 325 322 320 320 323 323 327 327 328 328 330 331 331 330
314 315 316 327 320 323 323 323 326 326 326 328 330 330 330 330 331 332 332 331 336 337 337 337 335 323 311 316 324 323 325 321 319 316 317 324 321 326 325 325 323 320 326 327 327 329 327 328 329
312 316 321 324 321 322 321 322 323 328 328 327 332 332 332 330 331 331 332 333 337 337 337 337 333 323 312 314 328 327 327 324 324 320 322 319 323 326 328 325 324 322 325 324 325 327 326 324 326
317 322 323 324 324 323 320 322 323 323 328 330 330 330 330 331 331 331 331 336 337 337 337 336 331 323 310 324 326 325 325 320 315 322 323 322 324 328 327 325 319 325 322 324 325 329 328 324 325
322 323 316 322 324 326 321 322 323 324 322 328 330 330 330 331 331 331 332 335 337 337 337 334 329 324 312 323 328 326 327 326 318 322 325 321 326 328 328 324 318 324 321 324 324 327 327 325 324
322 319 313 312 319 321 321 325 322 321 321 327 330 330 330 330 331 331 333 335 337 337 336 333 329 323 313 324 328 323 327 326 324 320 321 323 326 330 327 322 319 321 321 321 323 325 326 325 324
319 315 316 317 318 317 318 318 320 320 319 322 331 328 329 330 330 331 333 336 336 337 335 333 328 324 316 315 325 326 327 327 326 322 325 322 324 326 328 322 320 318 322 322 319 323 327 326 325
321 314 318 317 318 319 316 317 318 320 320 327 332 328 328 330 330 331 334 338 334 336 335 332 331 326 325 319 327 325 325 325 322 325 320 317 318 320 330 323 322 319 317 319 320 322 327 326 325
319 315 316 319 319 318 317 315 319 319 324 331 331 331 331 330 330 332 337 337 333 335 334 332 331 328 327 323 322 319 316 319 325 326 323 317 314 322 329 323 322 320 319 317 317 320 324 325 323
317 315 317 316 316 317 317 317 317 318 323 329 331 331 330 329 330 330 334 334 332 333 334 333 331 329 330 323 321 322 318 317 322 324 322 317 316 323 326 323 321 321 320 319 317 318 321 321 321
314 317 313 313 313 316 318 319 318 316 318 320 323 328 328 330 332 331 330 331 331 334 332 331 331 330 330 324 322 325 321 317 313 319 315 313 315 322 323 324 322 321 321 320 318 316 318 320 320
311 309 309 310 308 312 318 320 318 319 318 325 329 328 328 330 333 332 329 329 332 333 333 332 331 331 330 327 322 325 321 321 313 312 312 317 314 318 320 322 323 321 320 319 318 316 317 318 319
308 307 307 307 308 312 315 318 319 319 319 321 329 327 327 328 331 332 330 329 328 330 332 332 331 331 330 328 324 321 320 323 314 313 314 318 314 315 318 320 322 320 320 318 318 317 316 316 317
305 305 304 305 305 307 310 317 318 318 316 317 326 327 328 328 328 328 329 328 327 329 331 334 333 332 330 328 327 324 318 321 318 314 312 314 315 313 317 321 322 320 319 318 318 318 317 317 316
305 303 303 305 305 307 311 314 316 307 310 312 315 324 327 327 328 328 328 328 327 328 328 328 329 331 330 330 328 326 321 322 319 319 317 312 313 313 313 318 321 321 319 318 318 318 318 318 317
304 302 304 304 306 307 310 313 309 307 308 307 309 311 314 323 323 324 328 328 328 327 328 328 329 330 330 330 330 329 325 322 320 320 319 319 312 313 313 316 319 321 321 319 318 318 318 317 314
304 307 306 306 305 305 305 307 306 304 306 307 307 307 307 308 308 309 314 321 328 329 329 329 330 331 331 330 330 330 328 324 322 320 321 321 321 315 314 317 319 319 321 320 319 318 317 316 315
308 306 305 306 305 305 305 305 303 304 304 304 305 305 306 307 307 307 311 314 317 325 328 328 327 329 329 330 327 330 330 328 324 322 323 323 321 321 316 317 320 322 320 319 318 317 316 314 314
305 306 305 305 305 305 304 304 303 303 303 302 302 303 305 305 306 308 309 316 316 316 323 328 328 327 327 331 327 329 331 331 327 322 323 324 322 322 321 320 319 321 320 318 318 317 316 316 315
306 306 305 304 305 305 304 304 303 303 302 302 301 301 301 304 306 306 307 310 315 320 325 327 327 328 326 326 328 329 329 330 330 326 324 325 324 323 323 322 321 320 320 319 318 318 316 317 315
306 307 306 306 304 304 303 305 303 303 303 302 301 300 300 300 302 304 305 306 308 310 317 323 326 327 326 326 326 327 327 328 328 325 324 326 325 325 325 325 321 322 320 318 319 318 317 316 315
308 306 306 306 305 306 302 304 305 303 303 302 301 299 299 299 301 302 304 305 306 307 308 312 320 326 328 327 328 327 327 329 329 327 328 327 327 326 326 326 325 323 323 320 319 318 318 317 316
307 304 306 306 306 302 304 300 303 301 303 302 300 299 298 298 298 299 300 303 304 305 306 308 311 318 324 325 327 326 327 327 327 329 326 326 326 327 326 326 325 325 325 324 321 319 319 318 318
304 303 300 299 300 296 303 301 302 305 304 301 300 298 298 297 296 297 299 301 302 304 305 306 307 311 319 325 324 327 325 326 327 327 328 328 328 328 327 327 326 326 326 325 324 322 320 320 318
302 297 293 297 296 299 302 303 304 303 302 300 299 298 297 296 296 296 296 298 300 301 303 304 305 307 310 317 324 325 326 325 325 325 325 326 327 327 326 326 326 326 325 326 325 324 322 320 321
305 305 297 300 303 301 302 305 305 302 301 299 298 298 297 297 296 296 295 295 296 298 299 301 304 305 306 310 315 323 326 326 324 324 324 324 325 325 326 327 326 325 324 325 325 325 324 322 321
302 301 306 300 298 302 301 303 303 301 299 299 298 298 297 296 296 296 295 294 295 297 297 298 302 304 305 306 309 314 317 324 323 323 323 323 323 323 324 325 326 326 325 325 325 325 324 324 323
304 304 299 296 299 300 300 301 303 302 301 299 298 298 297 296 296 296 295 296 295 297 297 298 301 303 305 306 306 309 314 315 317 320 321 322 322 323 324 324 324 325 324 326 325 322 323 323 323
304 299 304 305 305 303 302 300 302 301 300 299 298 297 297 296 295 296 295 296 295 295 297 298 302 303 304 307 307 307 308 311 316 321 322 323 323 324 322 323 324 325 325 326 325 325 325 323 322
304 304 304 298 298 300 302 301 300 300 299 298 297 297 296 296 296 296 296 296 296 295 296 298 301 304 306 307 309 308 310 314 317 321 322 322 322 322 322 323 323 323 324 324 325 324 324 324 324
Wind_Speed
10 9 5 2 3 4 3 5 2 4 3 3 3 4 4 3 3 3 13 27 29 31 31 26 20 16 20 22 21 20 19 20 18 16 15 14 12 16 13 14 12 18 17 16 14 15 18 17 17
7 6 3 2 4 2 5 3 5 4 4 5 5 3 4 2 2 4 21 27 30 31 30 26 19 17 20 23 20 20 19 18 16 15 16 13 17 16 13 13 9 14 18 15 15 15 13 13 13
5 6 5 4 4 8 5 5 6 3 4 2 4 4 3 2 2 15 13 27 31 31 28 24 19 18 17 20 22 19 18 16 15 15 15 19 19 17 15 11 9 14 19 16 15 13 11 12 12
5 5 3 4 7 4 4 6 3 3 3 2 6 5 3 2 6 9 20 28 31 31 27 23 19 17 16 22 22 19 17 13 11 16 18 15 17 16 15 11 10 14 21 17 16 15 13 13 12
7 3 3 2 4 2 4 7 5 4 4 1 5 4 4 8 6 7 25 29 31 30 26 21 19 17 17 21 20 19 17 12 12 17 17 17 15 14 15 10 10 14 18 17 16 15 13 13 10
4 3 3 4 2 2 4 14 6 3 3 2 2 9 6 9 8 13 23 27 29 29 26 23 18 19 18 20 20 19 16 13 10 15 15 16 15 14 13 12 10 14 15 15 16 15 14 12 8
5 4 4 3 3 3 4 4 5 9 5 6 5 5 6 13 11 17 21 25 29 28 26 23 19 20 17 19 19 20 20 17 15 12 15 15 15 13 14 13 11 12 14 14 16 14 15 11 11
3 4 2 3 3 1 4 7 2 1 4 4 9 5 6 19 17 19 23 25 27 28 26 23 21 20 20 20 21 20 22 20 17 13 12 13 14 14 16 13 11 10 11 13 13 13 13 11 11
2 4 2 2 1 1 8 6 5 4 4 2 4 3 3 20 21 22 25 24 24 29 27 23 22 22 21 18 19 20 18 21 19 18 14 14 14 16 15 11 10 10 10 12 12 12 13 12 8
4 2 5 4 3 3 10 7 11 6 4 5 2 3 12 21 25 29 26 24 22 28 29 26 22 22 20 20 19 19 18 19 20 18 16 15 17 17 15 13 11 11 10 11 11 12 12 11 10
3 2 4 6 11 10 6 9 7 9 5 6 6 10 18 21 25 26 18 22 23 26 27 28 25 22 21 22 22 23 19 17 17 19 16 16 19 18 17 16 14 12 11 10 11 12 12 11 9
2 4 4 6 13 10 7 8 5 12 7 14 6 13 19 22 24 23 24 16 22 26 29 27 26 24 24 23 22 24 21 18 17 18 17 19 19 20 18 16 15 13 12 11 11 10 11 12 11
4 6 10 12 10 6 6 7 2 6 12 17 4 14 16 18 21 20 20 19 18 22 26 28 29 27 27 25 24 22 21 20 18 18 18 18 18 19 18 16 15 15 14 13 12 11 11 11 12
6 6 12 9 9 6 4 2 3 9 13 13 10 7 9 11 12 14 16 16 15 19 23 28 30 29 29 28 26 24 21 21 21 19 18 18 18 18 18 18 16 15 15 15 13 12 12 11 12
4 4 3 15 15 6 2 3 5 15 13 8 7 3 3 5 9 10 15 19 15 13 23 27 28 30 30 31 28 28 24 24 23 21 18 18 18 17 18 18 16 15 17 18 17 16 15 14 14
5 4 4 4 18 9 6 3 4 20 14 11 8 4 3 4 5 8 15 20 22 23 25 27 27 28 30 33 32 31 29 28 23 23 21 19 18 18 19 18 16 17 17 19 19 18 17 17 15
7 3 5 6 8 4 6 2 12 20 9 7 9 9 8 7 5 5 15 20 24 26 25 26 28 28 30 32 34 35 34 30 28 26 24 20 17 19 19 19 16 15 18 20 21 20 19 19 19
4 4 4 3 7 6 6 8 13 26 16 17 19 18 17 16 16 13 8 18 20 23 25 27 26 28 31 34 36 39 40 35 34 30 28 23 21 20 21 20 18 16 18 21 21 20 18 18 17
2 1 3 3 2 6 6 8 10 20 31 27 27 27 21 19 15 14 14 4 13 17 19 23 26 25 30 39 39 45 46 40 37 33 31 27 23 24 23 22 20 21 22 22 22 22 23 22 18
3 2 5 5 4 3 5 5 7 15 16 21 23 28 29 23 20 19 16 13 10 3 14 19 21 25 28 30 33 42 43 45 38 33 29 29 28 26 25 24 23 24 23 26 26 25 26 24 23
2 3 3 3 6 3 3 3 4 4 14 18 24 24 29 29 27 24 20 17 14 12 6 10 16 20 24 29 31 33 25 29 39 36 35 35 34 31 27 25 24 25 26 28 28 28 28 28 26
2 1 3 5 4 2 3 2 2 5 5 18 23 28 30 32 30 26 23 19 17 14 11 8 8 11 15 22 28 33 32 37 36 24 31 37 37 35 32 29 26 27 27 29 32 30 31 31 32
4 6 3 2 2 2 6 4 1 6 9 17 22 25 26 28 30 30 27 22 20 18 14 11 8 8 15 15 23 26 31 33 34 35 28 34 34 39 36 33 29 30 31 30 33 35 34 34 36
6 2 4 4 2 3 4 3 3 5 6 10 18 22 25 28 28 29 27 24 20 17 17 14 12 8 10 14 18 25 24 27 31 31 33 35 36 34 31 36 36 32 32 33 34 37 39 40 38
7 5 3 4 5 4 2 2 2 2 2 7 17 23 25 26 29 32 33 30 26 22 19 17 16 13 11 13 16 19 24 25 27 27 29 32 32 33 36 36 35 36 34 38 38 39 41 43 45
4 3 3 2 3 4 4 2 3 2 5 14 17 19 21 25 27 32 33 31 30 25 22 19 18 17 15 13 16 19 19 23 26 26 26 27 29 30 32 33 33 35 31 39 43 46 45 45 47
6 4 2 3 3 1 3 2 3 3 5 18 21 23 25 28 31 31 31 33 30 27 24 21 18 15 17 17 16 18 24 24 26 26 26 27 27 28 29 29 34 35 38 41 42 44 49 50 47
2 4 4 3 3 4 4 4 3 8 12 11 16 20 24 27 28 29 30 30 28 25 22 20 17 17 18 19 20 20 18 23 27 26 25 25 25 24 22 27 25 28 38 38 39 31 38 48 51
4 4 2 1 1 1 3 4 2 5 6 8 12 14 19 24 25 27 28 26 25 24 22 20 17 16 17 16 19 21 22 20 20 25 24 22 21 23 20 24 28 31 30 30 31 36 32 39 41
2 2 1 3 5 1 2 4 2 4 4 7 10 14 17 19 22 26 27 28 27 26 23 19 16 13 13 13 13 15 15 16 16 19 20 19 19 19 21 24 23 26 27 25 25 26 36 34 34
Wind_Direction
252 256 268 281 39 61 239 256 278 301 342 269 126 136 170 96 170 208 150 169 172 170 171 177 177 172 166 159 158 153 152 156 159 160 154 140 141 128 116 118 126 132 138 133 135 130 135 138 125
237 227 217 121 116 179 249 249 229 220 184 119 88 87 48 58 66 154 152 165 173 171 172 176 174 172 168 176 155 149 156 159 162 162 153 148 138 128 121 120 114 136 136 138 140 141 147 139 127
203 179 159 140 169 214 205 215 214 183 168 174 117 72 71 25 356 151 165 164 172 172 173 174 173 175 169 162 155 149 149 148 149 149 147 136 136 135 137 131 126 133 141 145 143 150 148 138 132
161 145 88 127 233 291 209 228 234 343 84 142 132 72 87 1 136 152 167 167 173 172 174 172 173 174 168 159 151 149 155 130 134 149 135 134 144 141 147 132 118 132 148 146 149 150 143 136 137
158 130 93 230 251 245 262 293 331 318 330 46 161 165 97 119 155 170 166 170 177 173 172 172 173 172 165 161 155 152 140 148 126 137 142 146 147 147 150 130 114 123 148 150 152 153 154 145 143
126 117 87 225 230 243 264 263 285 272 308 206 164 134 137 149 140 151 166 172 182 177 173 176 179 173 164 162 157 147 153 159 143 144 146 157 156 152 155 135 130 138 147 158 157 157 165 156 151
126 97 189 206 256 230 214 292 252 261 255 259 188 127 149 170 156 163 167 174 181 180 179 181 182 173 167 165 163 153 161 166 164 159 159 169 166 162 163 146 142 152 152 151 162 163 171 167 157
133 94 132 235 222 239 337 320 10 242 276 207 179 189 187 177 163 167 170 175 181 183 187 185 182 177 172 167 168 167 170 175 166 171 170 176 179 175 171 158 154 162 155 155 157 159 171 173 157
87 65 188 256 229 7 6 4 1 336 198 133 179 193 215 169 157 159 167 173 180 187 192 190 187 178 180 174 176 173 168 168 172 178 183 182 181 173 176 171 166 172 158 154 164 167 176 176 165
64 108 217 7 8 356 327 7 337 9 53 35 59 150 151 162 164 158 171 176 184 191 191 191 193 188 182 182 178 181 170 176 183 183 187 186 185 184 185 175 192 181 169 167 171 181 189 196 189
37 160 338 360 359 345 350 6 3 356 28 16 311 169 161 167 170 169 172 185 190 188 198 198 197 198 192 191 187 188 188 185 189 193 189 187 187 191 194 187 194 193 185 187 185 189 198 206 209
50 32 43 324 338 348 346 344 13 46 358 349 294 194 172 172 177 179 173 183 197 195 200 204 205 203 202 200 197 195 195 194 195 193 194 188 191 197 201 199 198 203 202 199 194 196 200 204 209
47 335 329 320 321 323 347 6 4 9 25 20 55 173 178 182 188 186 191 191 200 204 205 213 211 211 206 207 206 205 202 202 199 197 195 195 195 199 202 203 207 209 211 211 208 204 207 212 219
319 312 318 339 313 329 307 343 14 32 355 20 35 167 183 187 205 209 210 208 214 218 219 216 219 214 214 212 215 216 212 208 207 205 204 203 204 206 206 207 211 216 220 221 218 219 219 224 227
333 12 37 17 351 24 357 39 70 17 20 28 35 44 196 215 239 241 237 237 241 233 245 229 222 222 224 222 219 221 220 215 213 211 210 212 213 210 212 214 217 220 226 224 223 223 226 230 237
38 37 34 10 20 344 34 291 32 353 360 26 43 24 318 263 289 277 263 253 248 245 241 240 232 228 229 225 223 224 221 221 227 221 220 213 216 217 214 218 217 223 227 229 232 234 236 239 243
15 51 8 336 32 331 38 329 356 355 348 349 13 24 32 32 29 339 253 252 256 252 246 243 243 239 237 231 227 228 227 226 228 227 225 218 220 220 220 219 221 228 230 231 233 237 245 248 243
339 359 335 338 328 13 17 22 21 24 57 42 47 47 48 47 36 28 335 242 245 249 255 252 252 253 249 235 229 228 229 227 228 226 226 224 226 228 226 223 224 234 237 234 230 235 242 244 242
148 112 322 281 312 28 23 70 37 37 47 41 35 32 32 29 29 39 38 24 236 239 247 254 250 252 264 241 230 232 229 225 226 227 227 226 232 233 232 231 231 232 236 237 237 241 241 245 251
25 55 342 291 299 33 18 90 94 59 55 48 32 23 18 16 19 22 26 36 42 291 244 246 246 249 258 258 247 237 233 237 228 228 227 229 233 231 238 237 233 235 234 236 238 243 242 243 245
10 81 337 276 328 64 15 75 47 101 56 37 31 19 15 11 4 4 6 8 5 16 359 265 251 244 250 259 266 260 267 237 226 227 227 226 230 234 240 243 240 238 242 238 243 245 245 245 247
339 345 283 292 11 148 27 211 25 344 2 17 13 10 4 3 1 358 353 352 349 347 347 346 285 255 247 257 262 264 260 246 237 243 250 238 231 233 238 244 245 242 246 245 243 246 246 249 251
280 334 318 318 88 44 0 72 265 11 341 356 357 358 357 356 354 352 349 341 335 328 321 318 319 273 251 245 256 262 262 264 265 253 264 255 241 233 236 243 244 246 247 252 251 248 246 248 251
303 347 31 38 57 46 302 101 347 9 334 333 343 353 354 352 353 351 347 339 331 320 310 300 295 295 249 237 241 251 262 264 263 264 261 255 247 231 242 242 245 249 251 254 256 255 251 252 253
14 38 354 1 13 200 315 47 277 10 339 336 335 347 354 1 358 355 352 348 339 328 313 300 285 272 269 249 232 237 252 255 259 263 267 266 264 258 255 238 246 248 255 253 255 256 256 255 255
330 12 132 201 342 287 308 287 180 109 27 354 351 353 360 360 357 355 350 347 343 336 325 309 290 272 262 256 246 239 238 248 252 255 262 269 272 273 269 259 259 254 262 255 256 256 257 258 259
318 28 290 109 18 307 273 262 240 271 349 359 356 359 0 358 358 356 354 353 348 344 337 326 307 283 272 256 249 248 243 242 247 250 254 260 268 276 279 276 272 264 265 258 257 262 265 259 259
122 296 16 6 19 321 302 277 251 336 340 344 355 359 352 351 356 1 2 357 353 347 339 332 326 311 290 272 253 243 244 246 244 247 252 258 268 276 284 285 280 280 255 260 261 287 283 271 264
353 354 348 347 144 258 308 272 235 298 332 324 339 340 337 342 348 5 9 6 4 359 349 341 334 324 314 290 263 251 242 244 238 241 247 252 265 276 277 291 284 284 283 273 282 288 283 275 270
289 282 296 114 293 264 177 273 148 283 303 303 317 326 335 346 357 3 14 14 15 13 5 355 345 336 328 316 290 262 254 241 225 233 234 240 252 259 269 277 282 284 285 291 286 296 284 278 279